Location: Unspecified
(51.5147°N, 7.4673°E)
Time: 06:58:27
(UTC+01:00)

Transit 4A - Pass Details

Date: 19 February 2026
Orbit: 863 x 978 km, 66.8° (Epoch: 14 March)

Event Time Altitude Azimuth Distance (km) Brightness Sun altitude
Exits shadow 06:55:27 - 282° (WNW) 2,716 9.6 -7.0°
Reaches altitude 10° 06:55:55 10° 284° (WNW) 2,579 9.5 -7.0°
Maximum altitude 07:00:45 25° 339° (NNW) 1,783 9.1 -6.2°
Drops below altitude 10° 07:05:42 10° 32° (NNE) 2,650 10.6 -5.5°
Sets 07:08:48 0° 46° (NE) 3,616 11.5 -5.0°
